STARLINK-38048, 69754

Orbit data source: Space-Track

STARLINK-38048, 69754 is a payload satellite owned by SpaceX/Seattle (US) in SSO that was launched on Thu, 02 Jul 2026 UTC via an FALCON 9 launch vehicle from the Air Force Western Test Range (AFWTR). Payload-class satellites include a variety of spacecraft equipped with specific instruments for various scientific and technological missions. These include communications satellites like Starlink; space stations such as the ISS; scientific satellites like the Hubble; Earth observation satellites from companies like Planet Labs, Umbra, and HawkEye 360; GPS; miniature CubeSats for education and research; and military/defense satellites.

Loading next visibility...
Identifier
69754, 2026-150R
Orbit
SSO
Country
Flag of USUS
Related business
Manufacturer
SpaceX/Seattle
Mission
Operational spacecraft
Bus & Motor
STARLINK V2MO, Unknown motor
Mass
575 kg wet, ~530 kg dry
Launch date (UTC)
2026-07-02 (3 weeks ago)
Launch vehicle
FALCON 9
Launch site
Air Force Western Test Range (AFWTR)
Object type
Payload
Rocket body
Debris
Shape & HBR
Unknown shape, 17.7 m
Radar Cross Section
Large (>1 m²)

Expand to show TLE details & history
Last TLE update: 1 day ago

TLE from 1 day ago
0 STARLINK-38048
1 69754U 26150R   26202.01560313  .00246892  00000-0  12498-2 0  9993
2 69754  97.2835  40.7598 0001224  66.4308 293.7089 15.80881778  4247
Epoch: 2026-07-21T00:22Z
TLE epoch observation values (Epoch: 2026-07-21T00:22:28.110Z)
Latitude
Longitude
96.35131°
Altitude
330.792 km
Speed
7.71 km/s
True Right ascension
02h 43m 02s
True Declination
0° 00' 00"
Sunlit
Object was in daylight at epoch
Visualization orbit readout
Latitude
Unknown
Longitude
Unknown
Altitude
Unknown
Speed
Unknown
Apparent Right ascension
Unknown
Apparent Declination
Unknown
Sunlit
N/A
Visualization observer readout
Local Sidereal Time
17:47:03
Azimuth
Unknown
Elevation
Unknown
Doppler factor
Unknown
Orbital elements
Apogee altitude
325.646 km
Perigee altitude
324.005 km
Semi-major axis
6,702.963 km
Eccentricity
0.00012
Inclination
97.2835°
RAAN
40.7598°
Arg. of periapsis
66.4308°
True anomaly
293.69606°
Mean anomaly
293.7089°
Eccentric anomaly
293.70248°
Mean motion
3.95497 °/min
Orbital period
91.02 mins
BSTAR
0.0012498
Loading maneuver chart data...
Computing Atmospheric mass density...
Loading historical data...
Loading historical data...
Loading historical data...
Loading historical data...
Loading historical data...
Loading historical data...
Loading historical data...

Documentation

Showing up to 5 results
|